2018 UA Plumbers & Pipefitters 5k Pub Crawl Event

Downtown Ann Arbor
2018-08-13
Starts on: 2018-08-13
Where: Downtown Ann Arbor
Categories: 5k Run/Walk 5k and Pub Crawl Pub Crawl
Description: Start and Finish Main and Liberty in Downtown Ann Arbor - join us on August 13, 2018 for the UA Plumbers & Pipe Fitters 5K and Pub Crawl! In collaboration with the Ann Arbor Convention & Visitors Bureau.
Overall Female 5k run/walk
name bib rank time pace hometown
Audrey Belf 143 1 00:17:58.900 05:47 Bloomfield Hills, MI
Gabriel Ring 183 2 00:21:09.960 06:49 Ann Arbor, MI
Peggy Jarrett 82 3 00:22:05.170 07:07 Upper Marlboro, MD
Eleanor Stewart 182 4 00:23:16.670 07:30 Ann Arbor, MI
Kimberly Shaum 181 5 00:25:39.100 08:16 Saline, MI
Michelle Bone 159 6 00:26:13.370 08:27 Wixom, MI
Jeneen McNally 234 7 00:26:17.610 08:28 Ann Arbor, MI
Lindsey Mahlmeister 144 8 00:27:04.210 08:43 Ann Arbor, MI
Emily Jo Mortenson 155 9 00:27:35.830 08:53 Chelsea, MI
Stephanie Little 197 10 00:27:40.480 08:55 Kalamazoo, MI
Jacqueline Little 198 11 00:27:53.740 08:59 Michigan, MI
Carrie Berkley 148 12 00:29:32.130 09:31 Ann Arbor, MI
Yvonne Muglia 276 13 00:29:38.890 09:33 Pinckney, MI
Jillian Molnar 38 14 00:30:25.180 09:48 Blissfield, MI
Melina Sotiropoulos 203 15 00:31:04.550 10:00 Saline, MI
Rose richards 158 16 00:31:18.210 10:05 saline, MI
Kendrin Sonneville 214 17 00:31:36.330 10:11 Ann Arbor, MI
Denise Dashner 163 18 00:31:36.890 10:11 Temperance, MI
Linda Scorof 154 19 00:32:29.800 10:28 Garden City, MI
Olivia Tyler 179 20 00:32:34.630 10:29 Ann Arbor, MI
Patricia Delaney 208 21 00:33:20.410 10:44 Ann Arbor, MI
Katie Johnson 210 22 00:35:01.790 11:17 Ypsilanti, MI
Kaylee Kozlowski 174 23 00:36:15.370 11:40 Riverview, MI
Marta Misztura 205 24 00:36:50.610 11:52 Livonia, MI
Jen Grimes 170 25 00:38:03.620 12:15 Canton, MI
Kathy Passino 59 26 00:38:28.410 12:23 Westland, MI
Cindy DeRosa 297 27 00:39:07.770 12:36 Novi, MI
Linda Charles 151 28 00:39:17.600 12:39 Ann Arbor, MI
Kate Britt 228 29 00:39:40.660 12:46 Ann Arbor, MI
Kelly Steinhauer 33 30 00:41:25.930 13:20 Ann Arbor, MI
Bella Evans 247 31 00:42:00.370 13:31 Richmond, OH
Megan Evans 215 32 00:42:00.990 13:32 Richmond, OH
Adele Sowinski 196 33 00:43:09.540 13:54 Ann Arbor, MI
Lisa Freund 186 34 00:43:15.600 13:55 Jackson, MI
Lina Breskman 290 35 00:43:35.410 14:02 Ann Arbor, MI
Melinda Calley 175 36 00:43:56.640 14:09 Weidman, MI
Tracy Webster 216 37 00:46:52.930 15:06 Annapolis, MD
Darlene Lee 78 38 00:46:54.170 15:06 Upper Marlboro, MD
Dianne Lash 80 39 00:48:22.900 15:34 Upper Marlboro, MD
Helen Holmboe 187 40 00:49:00.900 15:47 Annapolis, MD
Janet Odell 193 41 00:49:51.960 16:03 Victorville, CA
Patricia Wheeler 232 42 00:50:57.310 16:24 Livonia, MI
Viviana Falco 36 43 00:55:32.590 17:53 Pompano Beach, FL
Claudia Tuori 165 44 00:59:02.680 19:00 Howell, MI
Marissa Fisher 178 45 00:59:02.930 19:01 Howell, MI